EW5239 Weather Reports


Display with metric or nautical units.
time (UTC)temp
F
wind
direction
speed
MPH
gust
MPH
rain 1hr
in
rain 24hr
in
rain mn
in
humidity
%
barometer
mb
20260502190625 63 187 2.0 3.0 0.00 0.00 0.00 42 1019.7
20260502190506 63 199 3.0 3.0 0.00 0.00 0.00 43 1017.9
20260502190130 64 188 2.0 3.0 0.00 0.00 0.00 41 1019.7
20260502185625 64 185 2.0 3.0 0.00 0.00 0.00 41 1019.7
20260502185505 64 202 3.0 4.0 0.00 0.00 0.00 42 1017.7
20260502185125 64 182 2.0 3.0 0.00 0.00 0.00 41 1019.7
20260502184506 65 192 2.0 3.0 0.00 0.00 0.00 42 1017.9
20260502184006 65 186 3.0 4.0 0.00 0.00 0.00 42 1017.7
20260502183625 65 176 3.0 4.0 0.00 0.00 0.00 39 1019.4
20260502183506 65 189 3.0 4.0 0.00 0.00 0.00 41 1017.9
20260502182625 66 189 2.0 3.0 0.00 0.00 0.00 38 1019.5
20260502182505 67 168 3.0 3.0 0.00 0.00 0.00 39 1017.9
20260502182125 67 189 2.0 3.0 0.00 0.00 0.00 38 1019.3
20260502182006 67 174 2.0 3.0 0.00 0.00 0.00 38 1017.8
20260502181506 68 181 2.0 2.0 0.00 0.00 0.00 37 1017.8
20260502181125 68 186 2.0 2.0 0.00 0.00 0.00 36 1019.5
20260502181005 69 181 2.0 2.0 0.00 0.00 0.00 36 1017.7
20260502180624 69 187 1.0 2.0 0.00 0.00 0.00 35 1019.5
20260502180506 69 184 2.0 2.0 0.00 0.00 0.00 36 1017.8
20260502180131 69 172 2.0 4.0 0.00 0.00 0.00 35 1019.2
20260502170506 73 149 4.0 7.0 0.00 0.00 0.00 30 1017.8
20260502170130 73 155 4.0 7.0 0.00 0.00 0.00 28 1019.4
20260502164125 75 139 5.0 9.0 0.00 0.00 0.00 26 1019.5
20260502164006 74 134 5.0 8.0 0.00 0.00 0.00 29 1018.1
20260502163625 75 137 5.0 9.0 0.00 0.00 0.00 26 1019.5
20260502163125 75 136 5.0 7.0 0.00 0.00 0.00 26 1019.5
20260502163006 74 139 5.0 7.0 0.00 0.00 0.00 29 1018.2
20260502162625 75 162 6.0 10.0 0.00 0.00 0.00 28 1019.8
20260502162506 75 155 6.0 9.0 0.00 0.00 0.00 29 1018.0
20260502162125 75 174 7.0 10.0 0.00 0.00 0.00 27 1019.7
20260502162006 75 175 7.0 9.0 0.00 0.00 0.00 27 1018.1
20260502161505 75 187 6.0 8.0 0.00 0.00 0.00 29 1018.2
20260502161125 75 178 5.0 7.0 0.00 0.00 0.00 26 1019.7
20260502161006 75 192 5.0 6.0 0.00 0.00 0.00 30 1018.1
20260502160625 76 144 5.0 7.0 0.00 0.00 0.00 26 1020.1
20260502160506 74 157 5.0 6.0 0.00 0.00 0.00 29 1018.2
20260502160130 76 131 5.0 7.0 0.00 0.00 0.00 27 1020.0
20260502152125 75 202 4.0 7.0 0.00 0.00 0.00 26 1020.2
20260502152005 75 205 4.0 8.0 0.00 0.00 0.00 28 1018.7
20260502151506 76 232 3.0 8.0 0.00 0.00 0.00 28 1018.8
20260502151125 76 193 1.0 4.0 0.00 0.00 0.00 26 1020.4
20260502151006 75 198 2.0 4.0 0.00 0.00 0.00 29 1018.8
20260502150625 76 214 3.0 6.0 0.00 0.00 0.00 26 1020.4
20260502150506 75 192 4.0 6.0 0.00 0.00 0.00 29 1019.0
20260502150130 75 199 4.0 6.0 0.00 0.00 0.00 26 1020.2
20260502130506 74 199 4.0 5.0 0.00 0.00 0.00 31 1020.2
20260502130133 74 185 3.0 5.0 0.00 0.00 0.00 27 1021.8
20260502123625 74 312 5.0 8.0 0.00 0.00 0.00 27 1022.1
20260502123506 73 319 5.0 8.0 0.00 0.00 0.00 30 1020.5
20260502123006 73 284 4.0 6.0 0.00 0.00 0.00 31 1020.5
20260502122625 74 316 4.0 6.0 0.00 0.00 0.00 28 1022.2
20260502122125 74 36 4.0 6.0 0.00 0.00 0.00 28 1022.2
20260502122006 72 352 3.0 5.0 0.00 0.00 0.00 31 1020.8
20260502121625 73 105 4.0 5.0 0.00 0.00 0.00 27 1022.0
20260502121506 72 186 4.0 8.0 0.00 0.00 0.00 30 1020.7
20260502121125 74 48 5.0 7.0 0.00 0.00 0.00 28 1022.2
20260502120625 74 353 6.0 7.0 0.00 0.00 0.00 27 1022.5
20260502120506 73 277 6.0 8.0 0.00 0.00 0.00 31 1020.9
20260502120130 74 325 4.0 7.0 0.00 0.00 0.00 28 1022.4
20260502115625 74 283 3.0 5.0 0.00 0.00 0.00 29 1022.5
20260502115505 72 244 4.0 7.0 0.00 0.00 0.00 31 1020.9
20260502115125 74 269 4.0 7.0 0.00 0.00 0.00 29 1022.5
20260502115006 72 272 4.0 7.0 0.00 0.00 0.00 32 1021.0
20260502114506 72 309 4.0 8.0 0.00 0.00 0.00 31 1021.1
20260502114125 74 302 4.0 8.0 0.00 0.00 0.00 27 1022.8
20260502114006 73 287 5.0 9.0 0.00 0.00 0.00 31 1021.2
20260502113625 74 272 4.0 8.0 0.00 0.00 0.00 30 1022.9
20260502113506 72 263 4.0 9.0 0.00 0.00 0.00 32 1021.3
20260502113125 73 95 3.0 5.0 0.00 0.00 0.00 31 1022.7
20260502113006 72 93 4.0 5.0 0.00 0.00 0.00 32 1021.2
20260502112625 72 95 4.0 8.0 0.00 0.00 0.00 29 1022.9
20260502112125 72 97 5.0 8.0 0.00 0.00 0.00 30 1023.0
20260502112005 72 65 5.0 8.0 0.00 0.00 0.00 32 1021.3
20260502111625 73 55 4.0 7.0 0.00 0.00 0.00 28 1022.9
20260502111505 72 8 4.0 8.0 0.00 0.00 0.00 32 1021.4
20260502111125 73 347 4.0 8.0 0.00 0.00 0.00 28 1023.1
20260502111006 72 318 5.0 7.0 0.00 0.00 0.00 31 1021.5
20260502110625 73 309 6.0 8.0 0.00 0.00 0.00 29 1023.1
20260502110505 72 312 5.0 7.0 0.00 0.00 0.00 32 1021.6
20260502110131 73 302 4.0 8.0 0.00 0.00 0.00 31 1023.2
20260502110006 72 350 4.0 7.0 0.00 0.00 0.00 32 1021.7
20260502105625 72 78 4.0 6.0 0.00 0.00 0.00 31 1023.2
20260502105505 71 91 4.0 7.0 0.00 0.00 0.00 34 1021.7
20260502105125 72 51 4.0 6.0 0.00 0.00 0.00 31 1023.1
20260502105006 71 358 4.0 6.0 0.00 0.00 0.00 33 1021.6
20260502104625 72 14 5.0 8.0 0.00 0.00 0.00 31 1023.5
20260502104506 72 327 5.0 8.0 0.00 0.00 0.00 32 1021.8
20260502104125 72 15 5.0 8.0 0.00 0.00 0.00 29 1023.5
20260502104005 72 339 6.0 8.0 0.00 0.00 0.00 32 1021.9
20260502103625 72 15 5.0 8.0 0.00 0.00 0.00 30 1023.6
20260502103506 71 357 4.0 8.0 0.00 0.00 0.00 33 1021.8
20260502103125 72 72 3.0 6.0 0.00 0.00 0.00 31 1023.6
20260502102625 72 44 3.0 7.0 0.00 0.00 0.00 31 1023.6
20260502102505 71 36 4.0 8.0 0.00 0.00 0.00 34 1022.1
20260502102125 72 14 5.0 8.0 0.00 0.00 0.00 30 1023.7
20260502102006 71 341 5.0 8.0 0.00 0.00 0.00 33 1022.3
20260502101506 71 328 5.0 8.0 0.00 0.00 0.00 34 1022.1
20260502101125 72 341 5.0 7.0 0.00 0.00 0.00 32 1023.6
20260502101005 70 321 5.0 6.0 0.00 0.00 0.00 35 1022.3
20260502100625 71 330 6.0 8.0 0.00 0.00 0.00 32 1024.0
20260502100506 70 307 6.0 8.0 0.00 0.00 0.00 35 1022.3
20260502100131 71 324 4.0 8.0 0.00 0.00 0.00 33 1024.1
20260502091506 69 191 4.0 5.0 0.00 0.00 0.00 37 1022.9
20260502091125 70 159 5.0 8.0 0.00 0.00 0.00 34 1024.4
20260502091006 69 168 5.0 8.0 0.00 0.00 0.00 38 1022.9
20260502090625 69 181 5.0 9.0 0.00 0.00 0.00 34 1024.3
20260502090505 69 178 6.0 10.0 0.00 0.00 0.00 37 1022.8
20260502090131 70 184 5.0 9.0 0.00 0.00 0.00 35 1024.5
20260502071505 63 221 5.0 7.0 0.00 0.00 0.00 49 1023.1
20260502071125 63 218 4.0 7.0 0.00 0.00 0.00 45 1024.8
20260502071006 63 205 4.0 7.0 0.00 0.00 0.00 50 1023.1
20260502070625 62 237 4.0 5.0 0.00 0.00 0.00 48 1024.8
20260502070505 63 210 4.0 6.0 0.00 0.00 0.00 50 1023.1
20260502070132 62 226 4.0 4.0 0.00 0.00 0.00 48 1024.9
20260502065625 61 206 3.0 5.0 0.00 0.00 0.00 52 1024.6
20260502065506 62 241 4.0 5.0 0.00 0.00 0.00 54 1023.1
20260502065125 61 195 4.0 5.0 0.00 0.00 0.00 53 1024.7
20260502065005 62 196 4.0 5.0 0.00 0.00 0.00 54 1023.1
20260502064625 60 176 4.0 5.0 0.00 0.00 0.00 53 1024.7
20260502064505 62 172 4.0 5.0 0.00 0.00 0.00 54 1023.0
20260502064125 60 174 4.0 5.0 0.00 0.00 0.00 54 1025.0
20260502064006 61 173 3.0 5.0 0.00 0.00 0.00 55 1023.2
20260502063625 60 181 3.0 5.0 0.00 0.00 0.00 55 1025.0
20260502063505 60 175 3.0 5.0 0.00 0.00 0.00 57 1023.2
20260502063125 59 188 3.0 4.0 0.00 0.00 0.00 56 1024.9
20260502062625 59 222 3.0 5.0 0.00 0.00 0.00 59 1024.7
20260502062506 59 221 4.0 4.0 0.00 0.00 0.00 59 1023.2
20260502062125 58 228 3.0 5.0 0.00 0.00 0.00 63 1024.7
20260502062005 59 227 3.0 4.0 0.00 0.00 0.00 63 1023.1
20260502061125 56 189 2.0 3.0 0.00 0.00 0.00 73 1024.8
20260502061006 59 190 1.0 3.0 0.00 0.00 0.00 68 1023.2
20260502060006 56 224 2.0 3.0 0.00 0.00 0.00 74 1023.1
20260502055625 54 233 2.0 2.0 0.00 0.00 0.00 81 1024.7
20260502055506 56 233 2.0 3.0 0.00 0.00 0.00 76 1022.9
20260502055125 53 235 2.0 2.0 0.00 0.00 0.00 84 1024.8
20260502055005 55 250 1.0 3.0 0.00 0.00 0.00 79 1022.9
20260502054505 53 270 0.0 2.0 0.00 0.00 0.00 81 1023.1
20260502054125 51 205 1.0 2.0 0.00 0.00 0.00 88 1025.0
20260502054006 52 0 0.0 0.0 0.00 0.00 0.00 82 1023.1
20260502053625 50 193 1.0 2.0 0.00 0.00 0.00 89 1024.8
20260502053506 51 0 0.0 0.0 0.00 0.00 0.00 84 1023.1
20260502053005 50 0 0.0 0.0 0.00 0.00 0.00 85 1023.0
20260502052506 49 0 0.0 0.0 0.00 0.00 0.00 87 1023.0
20260502052125 48 270 1.0 2.0 0.00 0.00 0.00 95 1025.0
20260502051625 47 242 1.0 2.0 0.00 0.00 0.00 96 1024.7
20260502051506 47 0 0.0 0.0 0.00 0.00 0.00 90 1023.0
20260502051125 47 168 1.0 2.0 0.00 0.00 0.00 97 1024.9
20260502051006 47 0 0.0 0.0 0.00 0.00 0.00 91 1022.9
20260502050625 46 139 0.0 2.0 0.00 0.00 0.00 97 1024.9
20260502050505 46 0 0.0 0.0 0.00 0.00 0.00 92 1022.8
20260502050131 45 143 0.0 2.0 0.00 0.00 0.00 97 1024.8
20260502050006 43 0 0.0 0.0 0.00 0.00 0.00 93 1023.0
20260502045626 44 163 0.0 1.0 0.00 0.00 0.00 98 1024.8
20260502045505 42 0 0.0 0.0 0.00 0.00 0.00 93 1022.9
20260502045124 43 0 0.0 0.0 0.00 0.00 0.00 99 1024.8
20260502045006 41 0 0.0 0.0 0.00 0.00 0.00 93 1022.8
20260502044125 40 0 0.0 0.0 0.00 0.00 0.00 99 1024.8
20260502044005 40 0 0.0 0.0 0.00 0.00 0.00 94 1022.7
20260502043625 39 0 0.0 0.0 0.00 0.00 0.00 99 1024.7
20260502043506 40 0 0.0 0.0 0.00 0.00 0.00 94 1022.8
20260502043125 38 0 0.0 0.0 0.00 0.00 0.00 99 1024.6
20260502043006 39 0 0.0 0.0 0.00 0.00 0.00 94 1022.8
20260502042625 38 0 0.0 0.0 0.00 0.00 0.00 99 1025.0
20260502042505 39 0 0.0 0.0 0.00 0.00 0.00 94 1022.6
20260502042125 37 0 0.0 0.0 0.00 0.00 0.00 98 1024.7
20260502042006 39 0 0.0 0.0 0.00 0.00 0.00 94 1022.5
20260502041505 38 0 0.0 0.0 0.00 0.00 0.00 93 1022.5
20260502041125 37 135 0.0 1.0 0.00 0.00 0.00 94 1024.7
20260502040625 37 135 0.0 1.0 0.00 0.00 0.00 93 1024.7
20260502040506 38 0 0.0 0.0 0.00 0.00 0.00 92 1022.3
20260502040130 36 0 0.0 0.0 0.00 0.00 0.00 93 1024.7
20260502040006 38 0 0.0 0.0 0.00 0.00 0.00 92 1022.3
20260502035505 37 0 0.0 0.0 0.00 0.00 0.00 92 1022.4
20260502035125 36 0 0.0 0.0 0.00 0.00 0.00 93 1024.5
20260502035006 37 0 0.0 0.0 0.00 0.00 0.00 88 1022.3
20260502034625 36 0 0.0 0.0 0.00 0.00 0.00 92 1024.7
20260502034506 37 0 0.0 0.0 0.00 0.00 0.00 88 1022.4
20260502034125 36 0 0.0 0.0 0.00 0.00 0.00 92 1024.7
20260502034005 37 0 0.0 0.0 0.00 0.00 0.00 87 1022.5
20260502033506 37 0 0.0 0.0 0.00 0.00 0.00 87 1022.4
20260502033125 36 0 0.0 0.0 0.00 0.00 0.00 92 1024.9
20260502033005 37 0 0.0 0.0 0.00 0.00 0.00 87 1022.5
20260502032625 36 0 0.0 0.0 0.00 0.00 0.00 92 1024.6
20260502032125 36 0 0.0 0.0 0.00 0.00 0.00 92 1024.6
20260502032006 37 0 0.0 0.0 0.00 0.00 0.00 91 1022.4
20260502031625 36 0 0.0 0.0 0.00 0.00 0.00 92 1024.6
20260502031125 36 0 0.0 0.0 0.00 0.00 0.00 91 1024.7
20260502030625 36 0 0.0 0.0 0.00 0.00 0.00 91 1024.7
20260502030506 38 0 0.0 0.0 0.00 0.00 0.00 90 1022.4
20260502030131 36 0 0.0 0.0 0.00 0.00 0.00 91 1024.7
20260502030005 38 0 0.0 0.0 0.00 0.00 0.00 90 1022.5
20260502025625 36 0 0.0 0.0 0.00 0.00 0.00 91 1024.7
20260502025506 38 0 0.0 0.0 0.00 0.00 0.00 90 1022.5
20260502025125 37 0 0.0 0.0 0.00 0.00 0.00 91 1024.8
20260502025005 38 0 0.0 0.0 0.00 0.00 0.00 90 1022.5
20260502024625 37 0 0.0 0.0 0.00 0.00 0.00 91 1024.6
20260502024505 38 0 0.0 0.0 0.00 0.00 0.00 90 1022.6
20260502024125 37 0 0.0 0.0 0.00 0.00 0.00 91 1024.8
20260502023625 37 0 0.0 0.0 0.00 0.00 0.00 91 1024.6
20260502023506 38 0 0.0 0.0 0.00 0.00 0.00 89 1022.6
20260502023005 38 0 0.0 0.0 0.00 0.00 0.00 89 1022.4
20260502022625 37 0 0.0 0.0 0.00 0.00 0.00 91 1024.8
20260502022506 38 0 0.0 0.0 0.00 0.00 0.00 89 1022.5
20260502022126 37 0 0.0 0.0 0.00 0.00 0.00 91 1024.9
20260502021625 37 0 0.0 0.0 0.00 0.00 0.00 94 1024.8
20260502021505 39 0 0.0 0.0 0.00 0.00 0.00 89 1022.6
20260502021125 38 0 0.0 0.0 0.00 0.00 0.00 94 1024.9
20260502021006 39 0 0.0 0.0 0.00 0.00 0.00 88 1022.7
20260502020625 38 0 0.0 0.0 0.00 0.00 0.00 94 1025.0
20260502020505 40 0 0.0 0.0 0.00 0.00 0.00 88 1022.6
20260502020131 38 0 0.0 0.0 0.00 0.00 0.00 94 1024.7
20260502020006 40 0 0.0 0.0 0.00 0.00 0.00 88 1022.6
20260502015625 38 0 0.0 0.0 0.00 0.00 0.00 94 1024.9
20260502015506 40 0 0.0 0.0 0.00 0.00 0.00 88 1022.6
20260502015005 40 0 0.0 0.0 0.00 0.00 0.00 88 1022.5
20260502014625 38 0 0.0 0.0 0.00 0.00 0.00 94 1024.7
20260502013625 38 0 0.0 0.0 0.00 0.00 0.00 94 1024.8
20260502013505 40 0 0.0 0.0 0.00 0.00 0.00 87 1022.8
20260502013125 38 0 0.0 0.0 0.00 0.00 0.00 94 1024.8
20260502012625 39 0 0.0 0.0 0.00 0.00 0.00 94 1024.8
20260502012126 39 0 0.0 0.0 0.00 0.00 0.00 94 1024.7
20260502011625 39 0 0.0 0.0 0.00 0.00 0.00 93 1024.9
20260502011505 41 0 0.0 0.0 0.00 0.00 0.00 87 1022.7
20260502011125 39 0 0.0 0.0 0.00 0.00 0.00 93 1024.9
20260502011006 41 0 0.0 0.0 0.00 0.00 0.00 87 1022.6
20260502010505 41 0 0.0 0.0 0.00 0.00 0.00 88 1022.5
20260502010131 39 131 1.0 2.0 0.00 0.00 0.00 93 1024.6
20260502010005 40 0 0.0 0.0 0.00 0.00 0.00 87 1022.7
20260502005625 38 130 0.0 2.0 0.00 0.00 0.00 92 1024.9
20260502005506 40 0 0.0 0.0 0.00 0.00 0.00 87 1022.7
20260502005005 40 0 0.0 0.0 0.00 0.00 0.00 87 1022.6
20260502004625 39 0 0.0 0.0 0.00 0.00 0.00 92 1024.7
20260502004505 40 0 0.0 0.0 0.00 0.00 0.00 87 1022.6
20260502004006 40 0 0.0 0.0 0.00 0.00 0.00 87 1022.6
20260502003626 39 270 0.0 1.0 0.00 0.00 0.00 91 1024.8
20260502003505 40 0 0.0 0.0 0.00 0.00 0.00 86 1022.6
20260502003125 39 270 0.0 1.0 0.00 0.00 0.00 91 1024.8
20260502003005 40 0 0.0 0.0 0.00 0.00 0.00 86 1022.6
20260502002625 39 0 0.0 0.0 0.00 0.00 0.00 90 1024.8
20260502002126 39 270 0.0 1.0 0.00 0.00 0.00 89 1024.7
20260502002006 41 0 0.0 0.0 0.00 0.00 0.00 86 1022.6
20260502001625 39 270 0.0 1.0 0.00 0.00 0.00 89 1024.7
20260502001506 41 0 0.0 0.0 0.00 0.00 0.00 85 1022.6
20260502001005 41 0 0.0 0.0 0.00 0.00 0.00 84 1022.7
20260502000625 40 270 0.0 1.0 0.00 0.00 0.00 89 1024.8
20260502000505 42 0 0.0 0.0 0.00 0.00 0.00 84 1022.7
20260502000131 40 270 0.0 1.0 0.00 0.00 0.00 88 1024.8
20260502000006 42 0 0.0 0.0 0.00 0.00 0.00 84 1022.6
20260501235625 41 0 0.0 0.0 0.00 0.00 0.00 88 1024.7
20260501235505 42 0 0.0 0.0 0.00 0.00 0.00 84 1022.6
20260501235006 42 0 0.0 0.0 0.00 0.00 0.00 84 1022.6
20260501234625 41 135 0.0 1.0 0.00 0.00 0.00 87 1024.8
20260501234505 43 0 0.0 0.0 0.00 0.00 0.00 84 1022.6
20260501234125 41 135 0.0 1.0 0.00 0.00 0.00 87 1024.9
20260501234005 43 0 0.0 0.0 0.00 0.00 0.00 84 1022.6
20260501233625 41 135 0.0 1.0 0.00 0.00 0.00 87 1024.5
20260501233506 43 0 0.0 0.0 0.00 0.00 0.00 84 1022.6
20260501232505 42 0 0.0 0.0 0.00 0.00 0.00 84 1022.7
20260501232126 41 0 0.0 0.0 0.00 0.00 0.00 86 1024.8
20260501232006 42 0 0.0 0.0 0.00 0.00 0.00 83 1022.7
20260501231625 41 0 0.0 0.0 0.00 0.00 0.00 86 1024.7
20260501231505 42 0 0.0 0.0 0.00 0.00 0.00 83 1022.9
20260501231005 43 0 0.0 0.0 0.00 0.00 0.00 83 1022.9
20260501230131 42 0 0.0 0.0 0.00 0.00 0.00 85 1024.8
20260501230006 43 0 0.0 0.0 0.00 0.00 0.00 82 1022.9
20260501225625 42 0 0.0 0.0 0.00 0.00 0.00 84 1024.7
20260501225125 42 0 0.0 0.0 0.00 0.00 0.00 84 1025.0
20260501225006 44 0 0.0 0.0 0.00 0.00 0.00 81 1022.9
20260501224625 42 0 0.0 0.0 0.00 0.00 0.00 84 1024.8
20260501224505 44 0 0.0 0.0 0.00 0.00 0.00 81 1023.0
20260501224126 42 0 0.0 0.0 0.00 0.00 0.00 84 1024.8
20260501224006 44 0 0.0 0.0 0.00 0.00 0.00 80 1022.9
20260501223626 43 0 0.0 0.0 0.00 0.00 0.00 84 1024.6
20260501223506 44 0 0.0 0.0 0.00 0.00 0.00 80 1023.0
20260501223005 45 0 0.0 0.0 0.00 0.00 0.00 79 1022.8
20260501222625 43 0 0.0 0.0 0.00 0.00 0.00 83 1024.8
20260501222505 45 0 0.0 0.0 0.00 0.00 0.00 80 1023.0
20260501222125 44 135 0.0 1.0 0.00 0.00 0.00 83 1024.7
20260501222006 45 0 0.0 0.0 0.00 0.00 0.00 80 1022.9
20260501221625 44 135 0.0 1.0 0.00 0.00 0.00 83 1024.9
20260501221505 45 0 0.0 0.0 0.00 0.00 0.00 80 1022.8
20260501221125 44 135 0.0 1.0 0.00 0.00 0.00 83 1024.9
20260501221005 45 0 0.0 0.0 0.00 0.00 0.00 80 1022.9
20260501220625 44 200 0.0 1.0 0.00 0.00 0.00 82 1024.8
20260501220506 44 0 0.0 0.0 0.00 0.00 0.00 79 1022.8
20260501220132 44 208 0.0 1.0 0.00 0.00 0.00 82 1024.8
20260501215125 44 0 0.0 0.0 0.00 0.00 0.00 80 1025.0
20260501215006 45 0 0.0 0.0 0.00 0.00 0.00 76 1023.0
20260501214625 44 0 0.0 0.0 0.00 0.00 0.00 80 1024.9
20260501214506 46 0 0.0 0.0 0.00 0.00 0.00 76 1023.1
20260501214005 46 0 0.0 0.0 0.00 0.00 0.00 75 1022.9
20260501213625 45 0 0.0 0.0 0.00 0.00 0.00 78 1024.9
20260501213506 46 0 0.0 0.0 0.00 0.00 0.00 75 1023.1
20260501213125 45 0 0.0 0.0 0.00 0.00 0.00 78 1025.0
20260501213005 47 0 0.0 0.0 0.00 0.00 0.00 75 1022.9
20260501212505 47 0 0.0 0.0 0.00 0.00 0.00 75 1022.8
20260501212125 45 0 0.0 0.0 0.00 0.00 0.00 77 1024.9
20260501211625 45 0 0.0 0.0 0.00 0.00 0.00 76 1024.9
20260501211505 47 0 0.0 0.0 0.00 0.00 0.00 75 1022.9
20260501211125 46 0 0.0 0.0 0.00 0.00 0.00 76 1024.7
20260501211006 47 0 0.0 0.0 0.00 0.00 0.00 74 1022.9
20260501210506 47 0 0.0 0.0 0.00 0.00 0.00 74 1022.8
20260501210131 46 0 0.0 0.0 0.00 0.00 0.00 74 1024.9
20260501210005 47 0 0.0 0.0 0.00 0.00 0.00 73 1023.0
20260501205625 46 0 0.0 0.0 0.00 0.00 0.00 74 1024.8
20260501205506 48 0 0.0 0.0 0.00 0.00 0.00 72 1022.9
20260501205125 46 0 0.0 0.0 0.00 0.00 0.00 74 1024.9
20260501205005 48 0 0.0 0.0 0.00 0.00 0.00 72 1022.9
20260501204626 47 0 0.0 0.0 0.00 0.00 0.00 74 1025.0
20260501204126 47 0 0.0 0.0 0.00 0.00 0.00 73 1024.8
20260501204006 49 0 0.0 0.0 0.00 0.00 0.00 69 1023.1
20260501203625 48 0 0.0 0.0 0.00 0.00 0.00 72 1024.7
20260501203506 49 0 0.0 0.0 0.00 0.00 0.00 69 1022.9
20260501203005 50 0 0.0 0.0 0.00 0.00 0.00 68 1023.0
20260501202625 49 135 0.0 1.0 0.00 0.00 0.00 70 1024.7
20260501202125 49 181 0.0 1.0 0.00 0.00 0.00 70 1024.8
20260501202006 50 0 0.0 0.0 0.00 0.00 0.00 67 1022.9
20260501201625 49 181 0.0 1.0 0.00 0.00 0.00 69 1024.7
20260501201505 50 0 0.0 0.0 0.00 0.00 0.00 67 1022.8
20260501201126 49 181 0.0 1.0 0.00 0.00 0.00 68 1024.6
20260501200506 51 0 0.0 0.0 0.00 0.00 0.00 64 1023.0
20260501200131 50 225 0.0 1.0 0.00 0.00 0.00 65 1024.7
20260501200005 51 0 0.0 0.0 0.00 0.00 0.00 64 1022.9
20260501195626 50 225 0.0 1.0 0.00 0.00 0.00 65 1024.5
20260501195006 52 0 0.0 0.0 0.00 0.00 0.00 62 1022.9
20260501194625 51 0 0.0 0.0 0.00 0.00 0.00 64 1024.6
20260501194505 52 0 0.0 0.0 0.00 0.00 0.00 62 1022.9
20260501194125 51 0 0.0 0.0 0.00 0.00 0.00 63 1024.7
20260501193625 52 225 0.0 1.0 0.00 0.00 0.00 63 1024.7
20260501193506 53 0 0.0 0.0 0.00 0.00 0.00 60 1022.9
20260501193125 52 225 0.0 1.0 0.00 0.00 0.00 61 1024.4
20260501193005 53 0 0.0 0.0 0.00 0.00 0.00 59 1022.9
20260501192625 52 0 0.0 0.0 0.00 0.00 0.00 60 1024.6
20260501192505 54 0 0.0 0.0 0.00 0.00 0.00 57 1023.0
20260501192125 53 0 0.0 0.0 0.00 0.00 0.00 59 1024.7
20260501192006 54 0 0.0 0.0 0.00 0.00 0.00 56 1023.0
20260501191625 53 0 0.0 0.0 0.00 0.00 0.00 57 1024.6
20260501191505 55 0 0.0 0.0 0.00 0.00 0.00 55 1022.9
20260501191125 54 0 0.0 0.0 0.00 0.00 0.00 55 1024.7